Flag for Greece Weather past 2 weeks in Peristeri, Greece

Now
39 °F

Passing clouds.


Feels Like: 39 °F
Forecast: 37 / 59 °F
Wind: No wind

Location: Elefsis Airport

Current Time: Dec 22, 2014 at 10:57:39 PM

Latest Report: Dec 22, 2014 at 10:20 PM


Visibility: N/A

Pressure: 30.33 "Hg

Humidity: 75%

Dew point: 32 °F

Location of PeristeriLocation

Historic Weather in Peristeri — Graph

°F

Peristeri temperature yesterday

Maximum temperature yesterday: 64 °F (at 12:20 PM)
Minimum temperature yesterday: 43 °F (at 6:50 AM)
Average temperature yesterday: 53 °F

Past Weeks' High & Low Weather Summary

 TemperatureHumidityPressure
High64 °F (Dec 20, 3:20 PM)100% (Dec 8, 9:20 AM)30.42 "Hg (Dec 8, 9:20 AM)
Low41 °F (Dec 14, 5:20 AM)37% (Dec 21, 2:20 PM)29.59 "Hg (Dec 8, 11:50 PM)
Average53 °F77%30.05 "Hg
* Reported Dec 7 9:20 PM — Dec 22 9:50 PM, Peristeri, Weather by CustomWeather, © 2014

Note: Actual official high and low records may vary slightly from our data, if they occured in-between our weather recording intervals... More about our weather records

Advertising

Peristeri weather history for previous 24 hours

 ConditionsComfort  
Time TempWeatherWind HumidityBarometerVisibility
9:50 PM
Dec 22
41 °FPassing clouds.7 mph70%30.33 "HgN/A
9:20 PM41 °FPassing clouds.7 mph70%30.33 "HgN/A
8:50 PM43 °FPassing clouds.No wind66%30.36 "HgN/A
8:20 PM41 °FPassing clouds.5 mph70%30.36 "HgN/A
7:50 PM43 °FPassing clouds.5 mph66%30.36 "HgN/A
7:20 PM45 °FPassing clouds.No wind61%30.36 "HgN/A
6:50 PM45 °FPassing clouds.7 mph66%30.33 "HgN/A
6:20 PM45 °FPassing clouds.5 mph66%30.33 "HgN/A
5:50 PM46 °FPassing clouds.5 mph57%30.33 "HgN/A
5:20 PM46 °FPassing clouds.7 mph62%30.33 "HgN/A
4:50 PM50 °FPassing clouds.6 mph50%30.33 "HgN/A
4:20 PM52 °FPassing clouds.9 mph47%30.33 "HgN/A
3:50 PM54 °FPassing clouds.12 mph44%30.33 "HgN/A
3:20 PM54 °FPassing clouds.9 mph41%30.36 "HgN/A
2:50 PM54 °FPassing clouds.9 mph41%30.36 "HgN/A
2:20 PM55 °FPassing clouds.9 mph41%30.36 "HgN/A
1:50 PM54 °FPassing clouds.12 mph44%30.36 "HgN/A
1:20 PM54 °FPassing clouds.12 mph44%30.39 "HgN/A
12:50 PM54 °FPassing clouds.12 mph44%30.39 "HgN/A
12:20 PM54 °FPassing clouds.12 mph44%30.39 "HgN/A
11:50 AM54 °FPassing clouds.12 mph47%30.39 "HgN/A
11:20 AM52 °FPassing clouds.14 mph47%30.42 "HgN/A
10:50 AM52 °FPassing clouds.12 mph50%30.42 "HgN/A
10:20 AM52 °FPassing clouds.14 mph50%30.42 "HgN/A
9:50 AM50 °FPassing clouds.12 mph54%30.42 "HgN/A
9:20 AM48 °FPassing clouds.12 mph58%30.42 "HgN/A
8:50 AM48 °FPassing clouds.14 mph54%30.42 "HgN/A
8:20 AM48 °FPassing clouds.14 mph54%30.39 "HgN/A
7:50 AM46 °FPassing clouds.9 mph57%30.39 "HgN/A
7:20 AM46 °FPassing clouds.7 mph57%30.39 "HgN/A
6:50 AM48 °FPassing clouds.9 mph54%30.36 "HgN/A
6:20 AM48 °FPassing clouds.12 mph54%30.33 "HgN/A
5:50 AM48 °FPassing clouds.12 mph54%30.33 "HgN/A
5:20 AM48 °FPassing clouds.12 mph54%30.33 "HgN/A
4:50 AM48 °FPassing clouds.12 mph54%30.33 "HgN/A
4:20 AM50 °FPassing clouds.17 mph50%30.33 "HgN/A
3:50 AM50 °FPassing clouds.17 mph50%30.33 "HgN/A
2:50 AM50 °FPassing clouds.23 mph50%30.30 "HgN/A
2:20 AM50 °FPassing clouds.26 mph50%30.30 "HgN/A
1:50 AM52 °FPassing clouds.28 mph44%30.27 "HgN/A
1:20 AM52 °FPassing clouds.28 mph44%30.27 "HgN/A
12:50 AM52 °FPassing clouds.28 mph44%30.27 "HgN/A
12:20 AM54 °FPassing clouds.23 mph41%30.27 "HgN/A
11:20 PM
Dec 21
54 °FPassing clouds.23 mph44%30.27 "HgN/A
10:50 PM54 °FPassing clouds.26 mph44%30.27 "HgN/A
10:20 PM54 °FPassing clouds.26 mph47%30.21 "HgN/A
Weather by CustomWeather, © 2014

See weather overviewHow to use our weather pages